www.pogodaiklimat.ru

Погода и климат >> Архив погоды >> Индия >> Бихар >> Пурнеа


ПОГОДА в Пурнеа

  • Прогноз погоды в Пурнеа
  • Монитор погоды в Пурнеа

АРХИВ ПОГОДЫ в Пурнеа

Время (UTC), дата Ветер
(напр.,м/с)
 
Видим.   Явления Облачность Т
(С)
Тd
(С)
f
(%)
Тe
(С)
Тes
(С)
Комфортность P
(гПа)
Po
(гПа)
Тmin
(С)
Tmax
(С)
R
(мм)
R24
(мм)
S
(см)
12 15.05 СВ 1 4000 м 4/4 600 м
[Sc]
+33.0 +23.5 58 +44 +45 опасность
перегрева
1003.5 999.3 +35.5
15 15.05 СВ 1 2000 м в посл. час гроза {дождь} 8/4 600 м
[Sc As op]
+26.0 +24.9 94 +37 +37 очень
душно
1005.4 1001.0 2
18 15.05 СВ 1 2000 м мгла 6/4 600 м
[Sc Ac trans]
+25.4 +23.3 88 +34 +34 очень
душно
1006.7 1002.3 2
21 15.05 СВ 1 2000 м мгла 5/4 600 м
[Sc Ac trans]
+24.0 +22.5 91 +31 +31 очень
душно
1005.9 1001.5 2
00 16.05 СВ 1 2000 м мгла 6/4 600 м
[Sc Ac trans]
+23.4 +21.3 88 +31 +32 очень
душно
1006.1 1001.7 2
03 16.05 ЮВ 1 2000 м слаб. дождь 9/6 600 м
[Sc Ac trans]
+22.0 +22.0 100 +29 +32 очень
душно
1009.2 1004.8 +21.3 8
06 16.05 СВ 1 4000 м в посл. час гроза {дождь} ясно +29.6 +21.9 63 +38 +64 опасность
солнечного
удара
1008.3 1004.0
09 16.05 штиль 0 4000 м 4/4 600 м
[Sc]
+33.4 +22.7 54 +43 +54 опасность
перегрева
1005.7 1001.4
12 16.05 штиль 0 4000 м ясно +32.6 +23.4 58 +43 +44 опасность
перегрева
1004.3 1000.0 +34.2
15 16.05 СВ 1 2000 м мгла 4/4 600 м
[Sc]
+29.4 +23.9 72 +40 +40 очень
душно
1005.4 1001.1
18 16.05 СВ 2 2000 м мгла 4/4 600 м
[Sc]
+28.6 +23.4 73 +39 +39 очень
душно
1006.1 1001.8
21 16.05 В 2 2000 м мгла 6/4 600 м
[Sc Ac trans]
+27.8 +22.8 74 +37 +37 очень
душно
1004.9 1000.6
00 17.05 штиль 0 2000 м дымка ясно +25.2 +24.3 95 +35 +35 очень
душно
1004.1 999.7
03 17.05 В 1 4000 м мгла 6/4 600 м
[Sc Ac trans]
+29.0 +25.6 82 +43 +49 опасность
перегрева
1005.5 1001.2 +24.6
06 17.05 СВ 2 4000 м мгла 9/5 600 м
[Sc Ac trans]
+32.2 +27.0 74 +50 +56 опасность
перегрева
1005.3 1001.0
09 17.05 СВ 2 4000 м мгла 8/4 600 м
[Sc Ac trans]
+33.2 +26.9 70 +51 +56 опасность
перегрева
1003.0 998.8
12 17.05 СВ 1 4000 м мгла ясно +33.4 +26.8 68 +51 +52 опасность
перегрева
1001.1 996.9 +35.4
00 18.05 В 2 2000 м дымка 8/5 600 м
[Sc Ac trans]
+24.8 +24.2 96 +34 +34 очень
душно
1003.0 998.6
03 18.05 В 2 4000 м мгла 4/4 600 м
[Sc]
+28.8 +24.2 76 +40 +48 очень
душно
1004.9 1000.6 +24.3
06 18.05 СВ 2 4000 м 3/3 600 м
[Sc]
+33.8 +24.8 59 +47 +63 опасность
перегрева
1004.5 1000.3
09 18.05 СВ 1 4000 м ясно +36.2 +24.3 51 +49 +64 опасность
перегрева
1002.1 997.9
12 18.05 СВ 1 4000 м ясно +36.4 +23.9 49 +48 +49 опасность
перегрева
1000.8 996.6 +37.4
15 18.05 штиль 0 2000 м мгла 3/3 600 м
[Sc]
+31.0 +27.1 80 +49 +49 опасность
перегрева
1002.7 998.4
18 18.05 В 1 2000 м дымка 5/4 600 м
[Sc Ac trans]
+30.2 +26.9 83 +47 +47 опасность
перегрева
1004.4 1000.1
21 18.05 ЮВ 1 2000 м дымка 8/5 600 м
[Sc Ac trans]
+28.8 +26.6 88 +45 +45 опасность
перегрева
1003.4 999.1
00 19.05 СВ 1 2000 м дымка ясно +26.4 +25.0 92 +38 +38 очень
душно
1004.4 1000.1
03 19.05 СВ 1 2000 м мгла 4/4 600 м
[Sc]
+28.0 +24.9 83 +40 +48 очень
душно
1006.8 1002.5 +25.5
06 19.05 штиль 0 4000 м ясно +34.2 +24.6 57 +47 +77 опасность
перегрева
1006.7 1002.5
09 19.05 СЗ 1 4000 м ясно +37.2 +20.7 38 +43 +59 опасность
перегрева
1004.1 999.9
12 19.05 штиль 0 4000 м ясно +36.4 +22.2 44 +45 +46 опасность
перегрева
1003.3 999.1 +38.2
00 20.05 СВ 1 2000 м дымка ясно +25.6 +24.7 95 +36 +36 очень
душно
1006.2 1001.8
03 20.05 В 2 4000 м ясно +31.8 +25.6 70 +47 +59 опасность
перегрева
1008.2 1003.9 +25.0
06 20.05 В 2 4000 м ясно +35.0 +24.5 55 +48 +72 опасность
перегрева
1007.7 1003.5
09 20.05 ЮВ 2 4000 м 4/4 600 м
[Sc]
+37.8 +24.6 47 +50 +59 опасность
перегрева
1004.6 1000.4
12 20.05 ЮВ 2 4000 м ясно +35.8 +23.9 50 +47 +48 опасность
перегрева
1003.1 998.9 +38.5
00 21.05 ЮВ 2 2000 м дымка 6/4 600 м
[Sc Ac trans]
+26.0 +23.4 86 +35 +35 очень
душно
1006.1 1001.7
03 21.05 СВ 3 2000 м мгла 4/4 600 м
[Sc]
+29.2 +23.7 72 +40 +46 очень
душно
1008.0 1003.7 +25.3
06 21.05 В 2 4000 м 6/4 600 м
[Sc Ac trans]
+33.2 +25.0 62 +47 +58 опасность
перегрева
1007.6 1003.3
09 21.05 В 1 4000 м ясно +33.8 +25.7 63 +49 +65 опасность
перегрева
1005.2 1001.0
12 21.05 В 1 4000 м ясно +34.0 +26.2 64 +50 +51 опасность
перегрева
1003.6 999.4 +35.2
00 22.05 штиль 0 2000 м мгла 8/5 600 м
[Sc Ac trans]
+26.8 +21.1 71 +34 +34 очень
душно
1004.4 1000.1
03 22.05 В 1 4000 м мгла 8/4 600 м
[Sc Ac trans]
+30.8 +25.4 73 +45 +50 опасность
перегрева
1006.2 1001.9 +26.0
06 22.05 В 2 4000 м 4/4 600 м
[Sc]
+33.4 +23.3 56 +44 +57 опасность
перегрева
1006.3 1002.0
09 22.05 ЮВ 2 4000 м 4/4 600 м
[Sc]
+35.6 +24.6 53 +48 +56 опасность
перегрева
1003.1 998.9

 

Местоположение метеостанции Пурнеа (Бихар, Индия): широта 25.27 долгота 87.47 высота над уровнем моря 38 м.

В архиве по умолчанию представлена погода в Пурнеа за последнюю неделю. Архивные данные за месяц целиком и за предыдущие месяцы, начиная с января 2011 года, Вы можете получить, выбрав интересующий диапазон дат из раскрывающегося списка и нажав кнопку "Ввод!".


*Определитесь, кто Вы:
робот инопланетянин человек

Внимание! Время в таблицах - всемирное. Для получения местного времени необходимо прибавить поправку, которая равна 5.5 ч.

Смотрите также архив погоды в соседних городах и на ближайших метеорологических станциях:

Погода в Бхагалпуре (Бихар, Индия) (53 км)
Погода в Малда (Западная Бенгалия, Индия) (72 км)
Погода в Бадалхачги (Бангладеш) (115 км)
Погода в Динаджпуре (Бангладеш) (129 км)
Погода в Балургхате (Западная Бенгалия, Индия) (132 км)
Погода в Биратнагаре (Непал) (136 км)
Погода в Димле (Бангладеш) (142 км)
Погода в Бахарампуре (Западная Бенгалия, Индия) (150 км)
Погода в Саидпуре (Бангладеш) (155 км)
Погода в Раджшахи (Бангладеш) (159 км)

Пояснения к столбцам:

Ветер - указаны скорость ветра в м/с - средняя за 10 мин, порывы в срок и между сроками (в фигурных скобках) и направление, откуда дует ветер: С - северный, СВ - северо-восточный, В - восточный, ЮВ - юго-восточный, Ю - южный, ЮЗ - юго-западный, З - западный, СЗ - северо-западный.
Видимость - горизонтальная дальность видимости в метрах или километрах. При видимости от 1 до 10 км при отсутствии осадков обычно наблюдается дымка, при ухудшении видимости до 1 км и менее - туман. В сухую погоду видимость может ухудшаться дымом, пылью или мглою.
Явления - указаны атмосферные явления, наблюдавшиеся в срок или в последний час перед сроком; фигурными скобками обозначены явления, наблюдавшиеся между сроками (за 1-3 часа до срока); квадратными скобками обозначены град или гололедные отложения с указанием их диаметра в мм.
Облачность - указаны через наклонную черту общая и нижняя облачность в баллах и высота нижней границы облаков в метрах; квадратными скобками обозначены формы облаков: Ci - перистые, Cs - перисто-слоистые, Cc - перисто-кучевые, Ac - высококучевые, As - высокослоистые, Sc - слоисто-кучевые, Ns - слоисто-дождевые, Cu - кучевые, Cb - кучево-дождевые. Подробнее классификацию облаков см. в Атласе облаков (PDF).
T - Температура воздуха - температура, измеренная на высоте 2 м над землей.
Td - Температура точки росы - температура, при понижении до которой содержащийся в воздухе водяной пар достигнет насыщения.
f - Относительная влажность воздуха - влажноcть воздуха, измеренная на высоте 2 м над землей.
Te - Эффективная температура - температура, которую ощущает одетый по сезону человек в тени. Характеристика душности погоды. При расчете учитывается влияние влажности воздуха и скорости ветра на теплоощущения человека.
Tes - Эффективная температура на солнце - температура, которую ощущает человек, с поправкой на солнечный нагрев. Характеристика знойности погоды. Зависит от высоты солнца над горизонтом, облачности и скорости ветра. Ночью, в пасмурную погоду, а также при ветре 12 м/с и более поправка равна нулю.
P - Атмосферное давление - приведенное к уровню моря атмосферное давление.
Po - Атмосферное давление - измеренное на уровне метеостанции атмосферное давление.
Tmin - Минимальная температура - минимум температуры воздуха на высоте 2 м над землей.
Tmax - Максимальная температура - максимум температуры воздуха на высоте 2 м над землей.
R - Количество осадков - Количество выпавших осадков за период времени, мм. При наведении курсора мыши на число - период времени, за который выпало указанное количество осадков.
R24 - Количество осадков - Количество выпавших осадков за 24 часа, мм.
S - Снежный покров - Высота снежного покрова, см. При наведении курсора мыши на число - состояние снежного покрова и степень покрытия местности в баллах.